DW8690 Weather Reports


Display with metric or nautical units.
time (UTC)temp
F
wind
direction
speed
MPH
gust
MPH
rain 1hr
in
rain 24hr
in
rain mn
in
humidity
%
barometer
mb
20260504060206 49 100 1.0 3.0 0.00 0.01 0.01 69 1007.3
20260504060107 49 100 1.0 3.0 0.00 0.01 0.01 69 1007.4
20260504050707 51 0 0.0 0.0 0.00 0.01 0.01 66 1007.4
20260504050607 51 0 0.0 0.0 0.00 0.01 0.01 66 1007.5
20260504050507 51 0 0.0 0.0 0.00 0.01 0.01 66 1007.5
20260504050406 51 0 0.0 0.0 0.00 0.01 0.01 66 1007.5
20260504050307 51 0 0.0 0.0 0.00 0.01 0.01 66 1007.5
20260504050206 51 0 0.0 0.0 0.00 0.01 0.01 66 1007.5
20260504050007 51 0 0.0 0.0 0.00 0.01 0.01 66 1007.5
20260504045806 51 0 0.0 0.0 0.00 0.01 0.01 65 1007.5
20260504045707 51 0 0.0 0.0 0.00 0.01 0.01 65 1007.5
20260504045607 51 0 0.0 0.0 0.00 0.01 0.01 65 1007.5
20260504045506 51 0 0.0 1.0 0.00 0.01 0.01 65 1007.5
20260504045407 51 0 0.0 1.0 0.00 0.01 0.01 65 1007.6
20260504045306 51 0 0.0 1.0 0.00 0.01 0.01 65 1007.5
20260504044906 51 0 0.0 1.0 0.00 0.01 0.01 65 1007.6
20260504044808 52 0 0.0 1.0 0.00 0.01 0.01 65 1007.6
20260504044707 52 0 0.0 1.0 0.00 0.01 0.01 64 1007.5
20260504044606 52 0 0.0 1.0 0.00 0.01 0.01 64 1007.6
20260504044507 52 0 0.0 1.0 0.00 0.01 0.01 64 1007.7
20260504044406 52 0 0.0 1.0 0.00 0.01 0.01 64 1007.5
20260504044306 52 0 0.0 1.0 0.00 0.01 0.01 64 1007.5
20260504044006 52 0 0.0 2.0 0.00 0.01 0.01 63 1007.5
20260504043907 52 0 0.0 2.0 0.00 0.01 0.01 62 1007.5
20260504043807 52 0 0.0 2.0 0.00 0.01 0.01 62 1007.7
20260504043707 52 0 0.0 2.0 0.00 0.01 0.01 62 1007.7
20260504043506 52 0 0.0 2.0 0.00 0.01 0.01 62 1007.7
20260504043407 52 0 0.0 2.0 0.00 0.01 0.01 62 1007.6
20260504043307 52 0 0.0 2.0 0.00 0.01 0.01 62 1007.6
20260504043206 52 0 0.0 3.0 0.00 0.01 0.01 62 1007.7
20260504043107 52 0 0.0 3.0 0.00 0.01 0.01 61 1007.7
20260504042907 52 0 0.0 3.0 0.00 0.01 0.01 61 1007.8
20260504042807 52 0 0.0 3.0 0.00 0.01 0.01 61 1007.8
20260504042706 52 0 0.0 3.0 0.00 0.01 0.01 61 1007.8
20260504042607 52 0 0.0 3.0 0.00 0.01 0.01 61 1007.8
20260504042506 52 0 0.0 3.0 0.00 0.01 0.01 61 1007.7
20260504042407 52 0 0.0 3.0 0.00 0.01 0.01 61 1007.8
20260504042307 52 0 0.0 3.0 0.00 0.01 0.01 61 1007.8
20260504042207 53 216 1.0 3.0 0.00 0.01 0.01 61 1007.8
20260504042107 53 212 1.0 3.0 0.00 0.01 0.01 61 1007.7
20260504042006 53 206 1.0 3.0 0.00 0.01 0.01 61 1007.7
20260504041907 53 199 1.0 3.0 0.00 0.01 0.01 61 1007.7
20260504041706 53 175 1.0 3.0 0.00 0.01 0.01 61 1007.8
20260504041607 53 159 1.0 3.0 0.00 0.01 0.01 61 1007.8
20260504041506 53 144 1.0 3.0 0.00 0.01 0.01 61 1007.8
20260504041407 53 0 0.0 2.0 0.00 0.01 0.01 61 1007.7
20260504041307 52 0 0.0 2.0 0.00 0.01 0.01 61 1007.8
20260504041207 52 0 0.0 2.0 0.00 0.01 0.01 61 1007.8
20260504041107 52 0 0.0 2.0 0.00 0.01 0.01 61 1007.8
20260504041006 52 0 0.0 2.0 0.00 0.01 0.01 61 1007.8
20260504040807 52 0 0.0 2.0 0.00 0.01 0.01 61 1007.9
20260504040707 52 0 0.0 2.0 0.00 0.01 0.01 61 1007.9
20260504040607 52 0 0.0 2.0 0.00 0.01 0.01 61 1007.9
20260504040407 52 0 0.0 2.0 0.00 0.01 0.01 61 1007.9
20260504040307 52 0 0.0 2.0 0.00 0.01 0.01 61 1007.9
20260504040206 52 129 1.0 2.0 0.00 0.01 0.01 61 1007.9
20260504040107 53 129 1.0 2.0 0.00 0.01 0.01 60 1007.9
20260504040007 53 0 0.0 2.0 0.00 0.01 0.01 60 1007.8
20260504035906 53 0 0.0 3.0 0.00 0.01 0.01 60 1007.8
20260504035707 53 0 0.0 3.0 0.00 0.01 0.01 60 1007.9
20260504035606 53 0 0.0 3.0 0.00 0.01 0.01 60 1007.8
20260504035506 53 0 0.0 4.0 0.00 0.01 0.01 60 1007.8
20260504035407 53 0 0.0 4.0 0.00 0.01 0.01 60 1007.7
20260504035206 53 0 0.0 4.0 0.00 0.01 0.01 60 1007.8
20260504035107 53 90 1.0 4.0 0.00 0.01 0.01 60 1007.8
20260504034706 53 100 2.0 4.0 0.00 0.01 0.01 60 1007.8
20260504034507 53 109 2.0 4.0 0.00 0.01 0.01 60 1007.8
20260504034407 53 115 2.0 4.0 0.00 0.01 0.01 59 1007.7
20260504034306 53 122 2.0 3.0 0.00 0.01 0.01 58 1007.8
20260504034207 53 129 1.0 2.0 0.00 0.01 0.01 58 1007.7
20260504034107 53 125 1.0 2.0 0.00 0.01 0.01 58 1007.7
20260504034006 53 122 1.0 2.0 0.00 0.01 0.01 58 1007.8
20260504033907 53 127 1.0 2.0 0.00 0.01 0.01 58 1007.7
20260504033806 53 128 2.0 3.0 0.00 0.01 0.01 58 1007.8
20260504033708 53 0 0.0 3.0 0.00 0.01 0.01 58 1007.7
20260504033507 53 0 0.0 3.0 0.00 0.01 0.01 59 1007.6
20260504033406 53 123 1.0 3.0 0.00 0.01 0.01 59 1007.6
20260504033307 53 121 1.0 3.0 0.00 0.01 0.01 59 1007.6
20260504033207 53 0 0.0 3.0 0.00 0.01 0.01 59 1007.6
20260504033107 53 0 0.0 3.0 0.00 0.01 0.01 59 1007.6
20260504033007 53 0 0.0 3.0 0.00 0.01 0.01 59 1007.4
20260504032706 53 0 0.0 2.0 0.00 0.01 0.01 59 1007.5
20260504032606 53 0 0.0 2.0 0.00 0.01 0.01 59 1007.4
20260504032507 53 0 0.0 2.0 0.00 0.01 0.01 59 1007.5
20260504032406 53 0 0.0 2.0 0.00 0.01 0.01 59 1007.5
20260504032307 53 0 0.0 2.0 0.00 0.01 0.01 59 1007.4
20260504032106 53 0 0.0 3.0 0.00 0.01 0.01 59 1007.4
20260504032007 53 0 0.0 3.0 0.00 0.01 0.01 59 1007.4
20260504031907 53 144 1.0 3.0 0.00 0.01 0.01 59 1007.4
20260504031807 53 142 1.0 3.0 0.00 0.01 0.01 59 1007.2
20260504031706 53 147 1.0 3.0 0.00 0.01 0.01 59 1007.5
20260504031606 53 147 1.0 3.0 0.00 0.01 0.01 59 1007.4
20260504031507 53 148 1.0 3.0 0.00 0.01 0.01 59 1007.3
20260504031206 53 0 0.0 2.0 0.00 0.01 0.01 59 1007.3
20260504031107 53 0 0.0 2.0 0.00 0.01 0.01 59 1007.2
20260504031006 53 0 0.0 2.0 0.00 0.01 0.01 59 1007.1
20260504030906 53 0 0.0 2.0 0.00 0.01 0.01 59 1007.1
20260504030707 54 0 0.0 2.0 0.00 0.01 0.01 58 1007.3
20260504030606 54 0 0.0 2.0 0.00 0.01 0.01 58 1007.2
20260504030508 54 0 0.0 2.0 0.00 0.01 0.01 58 1007.3
20260504030407 54 0 0.0 2.0 0.00 0.01 0.01 58 1007.3
20260504030306 54 0 0.0 2.0 0.00 0.01 0.01 58 1007.2
20260504030207 54 0 0.0 3.0 0.00 0.01 0.01 58 1007.3
20260504030106 54 0 0.0 3.0 0.00 0.01 0.01 58 1007.2
20260504030006 54 120 1.0 3.0 0.00 0.01 0.01 58 1007.3
20260504025907 54 117 1.0 3.0 0.00 0.01 0.01 58 1007.2
20260504025806 54 113 1.0 3.0 0.00 0.01 0.01 58 1007.2
20260504025707 54 119 1.0 4.0 0.00 0.01 0.01 58 1007.2
20260504025607 54 117 1.0 4.0 0.00 0.01 0.01 58 1007.2
20260504025407 54 0 0.0 4.0 0.00 0.01 0.01 57 1007.3
20260504025306 54 0 0.0 4.0 0.00 0.01 0.01 57 1007.2
20260504025107 54 0 0.0 4.0 0.00 0.01 0.01 57 1007.2
20260504025007 54 124 2.0 4.0 0.00 0.01 0.01 57 1007.1
20260504024907 54 122 2.0 4.0 0.00 0.01 0.01 56 1007.3
20260504024806 54 129 2.0 4.0 0.00 0.01 0.01 56 1007.2
20260504024707 54 0 0.0 3.0 0.00 0.01 0.01 56 1007.2
20260504024606 54 131 1.0 3.0 0.00 0.01 0.01 56 1007.2
20260504024507 54 0 0.0 3.0 0.00 0.01 0.01 56 1007.2
20260504024407 54 130 1.0 3.0 0.00 0.01 0.01 56 1007.2
20260504024306 54 130 1.0 2.0 0.00 0.01 0.01 56 1007.2
20260504024107 55 129 1.0 2.0 0.00 0.01 0.01 55 1007.1
20260504024006 55 138 1.0 2.0 0.00 0.01 0.01 55 1007.1
20260504023806 55 0 0.0 2.0 0.00 0.01 0.01 55 1007.2
20260504023607 55 138 1.0 2.0 0.00 0.01 0.01 54 1007.0
20260504023506 55 0 0.0 2.0 0.00 0.01 0.01 54 1007.1
20260504023407 55 0 0.0 2.0 0.00 0.01 0.01 54 1007.0
20260504023207 56 0 0.0 3.0 0.00 0.01 0.01 54 1007.0
20260504023106 56 140 1.0 3.0 0.00 0.01 0.01 53 1007.0
20260504023007 56 143 1.0 3.0 0.00 0.01 0.01 53 1007.0
20260504022906 56 0 0.0 3.0 0.00 0.01 0.01 53 1006.9
20260504022807 56 139 1.0 3.0 0.00 0.01 0.01 52 1007.0
20260504022707 56 0 0.0 3.0 0.00 0.01 0.01 52 1007.0
20260504022607 56 0 0.0 3.0 0.00 0.01 0.01 52 1007.0
20260504022307 57 148 1.0 2.0 0.00 0.01 0.01 51 1007.0
20260504022207 57 0 0.0 2.0 0.00 0.01 0.01 51 1007.0
20260504022107 57 0 0.0 3.0 0.00 0.01 0.01 50 1006.9
20260504021906 57 0 0.0 3.0 0.00 0.01 0.01 49 1006.9
20260504021407 57 0 0.0 4.0 0.00 0.01 0.01 48 1006.9
20260504021306 58 0 0.0 4.0 0.00 0.01 0.01 48 1006.9
20260504021207 58 0 0.0 4.0 0.00 0.01 0.01 48 1006.9
20260504021106 58 150 2.0 4.0 0.00 0.01 0.01 48 1006.9
20260504021007 58 149 1.0 4.0 0.00 0.01 0.01 48 1007.0
20260504020907 58 162 2.0 4.0 0.00 0.01 0.01 47 1007.0
20260504020806 58 146 2.0 4.0 0.00 0.01 0.01 46 1006.9
20260504020708 58 100 1.0 2.0 0.00 0.01 0.01 46 1007.0
20260504020606 58 40 1.0 2.0 0.00 0.01 0.01 46 1006.9
20260504020407 58 0 0.0 2.0 0.00 0.01 0.01 47 1006.9
20260504020306 58 0 0.0 2.0 0.00 0.01 0.01 47 1006.9
20260504015907 58 0 0.0 2.0 0.00 0.01 0.01 46 1006.9
20260504015806 58 0 0.0 2.0 0.00 0.01 0.01 47 1006.9
20260504015706 58 0 0.0 4.0 0.00 0.01 0.01 47 1006.9
20260504015607 58 0 0.0 4.0 0.00 0.01 0.01 47 1007.0
20260504015506 58 0 0.0 4.0 0.00 0.01 0.01 46 1007.0
20260504015306 58 131 1.0 4.0 0.00 0.01 0.01 45 1007.0
20260504015207 58 0 0.0 4.0 0.00 0.01 0.01 45 1006.9
20260504015106 58 0 0.0 4.0 0.00 0.01 0.01 45 1006.9
20260504015007 58 0 0.0 4.0 0.00 0.01 0.01 45 1007.0
20260504014907 58 132 1.0 4.0 0.00 0.01 0.01 46 1007.0
20260504014806 58 137 2.0 4.0 0.00 0.01 0.01 46 1007.0
20260504014707 58 143 2.0 4.0 0.00 0.01 0.01 46 1007.1
20260504014606 58 0 0.0 4.0 0.00 0.01 0.01 46 1007.1
20260504014507 58 170 1.0 4.0 0.00 0.01 0.01 46 1007.1
20260504014208 58 0 0.0 4.0 0.00 0.01 0.01 46 1007.1
20260504014107 58 0 0.0 4.0 0.00 0.01 0.01 46 1007.1
20260504014006 58 221 1.0 4.0 0.00 0.01 0.01 46 1007.1
20260504013907 59 229 2.0 4.0 0.00 0.01 0.01 47 1007.1
20260504013806 59 0 0.0 4.0 0.00 0.01 0.01 48 1007.1
20260504013707 59 0 0.0 4.0 0.00 0.01 0.01 47 1007.3
20260504013607 59 225 1.0 4.0 0.00 0.01 0.01 47 1007.1
20260504013506 59 206 2.0 4.0 0.00 0.01 0.01 47 1007.1
20260504013407 59 186 1.0 4.0 0.00 0.01 0.01 47 1007.2
20260504013207 59 125 1.0 4.0 0.00 0.01 0.01 48 1007.2
20260504013007 59 0 0.0 4.0 0.00 0.01 0.01 48 1007.2
20260504012907 59 0 0.0 4.0 0.00 0.01 0.01 48 1007.2
20260504012806 59 0 0.0 4.0 0.00 0.01 0.01 48 1007.3
20260504012707 59 0 0.0 4.0 0.00 0.01 0.01 48 1007.3
20260504012607 59 122 1.0 4.0 0.00 0.01 0.01 48 1007.2
20260504012506 59 119 1.0 3.0 0.00 0.01 0.01 48 1007.3
20260504012407 59 121 2.0 3.0 0.00 0.01 0.01 47 1007.2
20260504012307 59 122 2.0 3.0 0.00 0.01 0.01 47 1007.3
20260504012207 59 125 2.0 3.0 0.00 0.01 0.01 47 1007.3
20260504012107 59 119 1.0 3.0 0.00 0.01 0.01 47 1007.3
20260504012006 59 111 2.0 4.0 0.00 0.01 0.01 47 1007.3
20260504011806 59 0 0.0 4.0 0.00 0.01 0.01 46 1007.3
20260504011706 59 105 1.0 4.0 0.00 0.01 0.01 47 1007.4
20260504011607 59 0 0.0 4.0 0.00 0.01 0.01 47 1007.4
20260504011506 59 0 0.0 4.0 0.00 0.01 0.01 47 1007.3
20260504011407 59 0 0.0 4.0 0.00 0.01 0.01 47 1007.4
20260504011307 59 0 0.0 4.0 0.00 0.01 0.01 47 1007.4
20260504011206 59 118 1.0 4.0 0.00 0.01 0.01 47 1007.5
20260504011107 59 122 2.0 4.0 0.00 0.01 0.01 47 1007.4
20260504011006 59 128 2.0 4.0 0.00 0.01 0.01 47 1007.4
20260504010706 59 131 1.0 3.0 0.00 0.01 0.01 47 1007.4
20260504010607 59 127 1.0 3.0 0.00 0.01 0.01 47 1007.4
20260504010508 59 125 1.0 3.0 0.00 0.01 0.01 47 1007.4
20260504010406 59 126 1.0 4.0 0.00 0.01 0.01 47 1007.3
20260504010306 59 122 1.0 4.0 0.00 0.01 0.01 47 1007.3
20260504010207 59 122 1.0 4.0 0.00 0.01 0.01 47 1007.4
20260504010106 59 123 1.0 4.0 0.00 0.01 0.01 47 1007.2
20260504010007 59 116 1.0 4.0 0.00 0.01 0.01 47 1007.2
20260504005806 59 118 2.0 4.0 0.00 0.01 0.01 48 1007.2
20260504005707 59 116 1.0 4.0 0.00 0.01 0.01 47 1007.2
20260504005407 60 115 1.0 6.0 0.00 0.01 0.01 47 1007.3
20260504005306 60 0 0.0 9.0 0.00 0.01 0.01 47 1007.3
20260504005207 60 0 0.0 9.0 0.00 0.01 0.01 46 1007.2
20260504005106 60 109 1.0 9.0 0.00 0.01 0.01 46 1007.3
20260504004907 60 0 0.0 9.0 0.00 0.01 0.01 46 1007.1
20260504004806 60 117 2.0 9.0 0.00 0.01 0.01 46 1007.2
20260504004707 60 118 2.0 9.0 0.00 0.01 0.01 46 1007.1
20260504004607 60 121 2.0 9.0 0.00 0.01 0.01 46 1007.2
20260504004507 60 119 3.0 9.0 0.00 0.01 0.01 46 1007.2
20260504004306 61 116 3.0 8.0 0.00 0.01 0.01 47 1007.2
20260504004207 61 112 4.0 8.0 0.00 0.01 0.01 47 1007.1
20260504004106 61 119 2.0 8.0 0.00 0.01 0.01 46 1007.0
20260504004007 61 122 3.0 8.0 0.00 0.01 0.01 46 1007.0
20260504003807 61 125 3.0 8.0 0.00 0.01 0.01 46 1007.0
20260504003706 61 133 4.0 8.0 0.00 0.01 0.01 46 1006.9
20260504003607 61 127 3.0 8.0 0.00 0.01 0.01 46 1006.9
20260504003506 61 126 3.0 8.0 0.00 0.01 0.01 45 1006.9
20260504003407 61 122 2.0 8.0 0.00 0.01 0.01 45 1006.8
20260504003306 61 117 2.0 8.0 0.00 0.01 0.01 47 1006.9
20260504003206 61 118 1.0 8.0 0.00 0.01 0.01 47 1006.7
20260504003107 61 114 2.0 8.0 0.00 0.01 0.01 47 1006.8
20260504003006 61 107 4.0 8.0 0.00 0.01 0.01 47 1006.8
20260504002907 61 102 2.0 7.0 0.00 0.01 0.01 46 1006.7
20260504002807 61 106 4.0 7.0 0.00 0.01 0.01 46 1006.7
20260504002706 60 99 2.0 6.0 0.00 0.01 0.01 45 1006.7
20260504002607 60 105 2.0 6.0 0.00 0.01 0.01 45 1006.8
20260504002506 60 106 2.0 6.0 0.00 0.01 0.01 45 1006.8
20260504002407 60 114 2.0 6.0 0.00 0.01 0.01 45 1006.8
20260504002107 60 210 2.0 8.0 0.00 0.01 0.01 45 1006.7
20260504002006 60 232 1.0 8.0 0.00 0.01 0.01 45 1006.8
20260504001907 60 231 2.0 8.0 0.00 0.01 0.01 45 1006.9
20260504001806 60 237 3.0 8.0 0.00 0.01 0.01 46 1006.8
20260504001707 60 237 1.0 8.0 0.00 0.01 0.01 48 1006.9
20260504001606 59 0 0.0 9.0 0.00 0.01 0.01 47 1006.8
20260504001507 59 221 1.0 9.0 0.00 0.01 0.01 47 1006.8
20260504001407 59 224 3.0 9.0 0.00 0.01 0.01 47 1006.9
20260504001306 59 227 1.0 9.0 0.00 0.01 0.01 48 1006.7
20260504001207 59 219 2.0 9.0 0.00 0.01 0.01 48 1006.8
20260504001106 59 208 4.0 9.0 0.00 0.01 0.01 47 1006.7
20260504001006 59 175 4.0 9.0 0.00 0.01 0.01 49 1006.7
20260504000907 59 182 2.0 10.0 0.00 0.01 0.01 49 1006.6
20260504000806 59 185 2.0 12.0 0.00 0.01 0.01 49 1006.5
20260504000707 59 191 4.0 12.0 0.00 0.01 0.01 49 1006.5
20260504000606 59 196 4.0 12.0 0.00 0.01 0.01 48 1006.5
20260504000507 58 209 4.0 12.0 0.00 0.01 0.01 50 1006.5
20260504000408 59 209 2.0 12.0 0.00 0.01 0.01 53 1006.5
20260504000307 59 210 3.0 12.0 0.00 0.01 0.01 52 1006.5
20260504000106 58 210 6.0 12.0 0.00 0.01 0.01 45 1006.7
20260503235906 58 207 5.0 12.0 0.00 0.01 0.01 46 1006.8
20260503235706 58 206 6.0 11.0 0.00 0.01 0.01 49 1006.8
20260503235607 57 201 5.0 11.0 0.00 0.01 0.01 50 1006.7
20260503235407 57 197 7.0 11.0 0.00 0.01 0.01 50 1006.8
20260503235206 57 202 4.0 11.0 0.00 0.01 0.01 53 1006.8
20260503235007 56 207 6.0 11.0 0.00 0.01 0.01 54 1006.8
20260503234907 56 207 4.0 9.0 0.00 0.01 0.01 56 1006.8
20260503234806 56 181 2.0 9.0 0.00 0.01 0.01 57 1006.8
20260503234706 56 165 1.0 9.0 0.00 0.01 0.01 56 1006.9
20260503234607 56 214 2.0 17.0 0.00 0.01 0.01 56 1006.9
20260503234406 56 280 4.0 17.0 0.00 0.01 0.01 56 1006.9
20260503234306 56 292 2.0 17.0 0.00 0.01 0.01 57 1007.0
20260503234207 56 280 2.0 17.0 0.00 0.01 0.01 58 1007.0
20260503233907 56 268 4.0 17.0 0.01 0.01 0.01 58 1007.0
20260503233607 56 267 11.0 17.0 0.01 0.01 0.01 57 1006.9
20260503233406 56 243 11.0 16.0 0.01 0.01 0.01 57 1007.0
20260503233307 56 227 8.0 15.0 0.01 0.01 0.01 59 1006.9
20260503233206 56 232 4.0 13.0 0.01 0.01 0.01 60 1007.1
20260503233106 56 233 3.0 13.0 0.01 0.01 0.01 61 1007.3
20260503233007 56 228 4.0 13.0 0.01 0.01 0.01 60 1007.3
20260503232906 56 228 5.0 13.0 0.01 0.01 0.01 60 1007.3
20260503232807 57 239 5.0 13.0 0.01 0.01 0.01 60 1007.4
20260503232706 57 237 6.0 13.0 0.01 0.01 0.01 61 1007.4
20260503232607 57 242 8.0 13.0 0.01 0.01 0.01 59 1007.3
20260503232506 57 245 6.0 12.0 0.01 0.01 0.01 61 1007.3
20260503232406 56 249 6.0 13.0 0.01 0.01 0.01 61 1007.4
20260503232307 56 260 7.0 13.0 0.01 0.01 0.01 60 1007.4
20260503232206 56 262 5.0 13.0 0.01 0.01 0.01 60 1007.2
20260503232106 56 265 4.0 13.0 0.01 0.01 0.01 61 1007.2
20260503232007 56 276 5.0 13.0 0.01 0.01 0.01 62 1007.2
20260503231907 56 290 8.0 14.0 0.01 0.01 0.01 62 1007.3
20260503231708 56 273 8.0 14.0 0.01 0.01 0.01 62 1007.1
20260503231606 56 264 8.0 17.0 0.01 0.01 0.01 62 1006.9
20260503231507 56 263 8.0 17.0 0.01 0.01 0.01 63 1006.9
20260503230806 56 275 10.0 17.0 0.01 0.01 0.01 61 1006.9
20260503230706 56 275 11.0 17.0 0.01 0.01 0.01 60 1007.0
20260503230605 55 275 11.0 17.0 0.01 0.01 0.01 61 1006.8
20260503230506 55 276 11.0 17.0 0.01 0.01 0.01 61 1006.9
20260503230405 55 273 8.0 13.0 0.01 0.01 0.01 63 1006.8
20260503230306 55 265 9.0 13.0 0.01 0.01 0.01 63 1006.9
20260503230205 55 261 6.0 15.0 0.01 0.01 0.01 64 1007.0
20260503230105 55 259 8.0 15.0 0.01 0.01 0.01 63 1007.1
20260503230006 55 256 8.0 15.0 0.01 0.01 0.01 64 1007.0
20260503225906 55 252 8.0 15.0 0.01 0.01 0.01 64 1006.9
20260503225805 55 249 8.0 15.0 0.01 0.01 0.01 64 1007.1
20260503225606 55 240 8.0 15.0 0.01 0.01 0.01 63 1007.2
20260503225505 55 241 10.0 15.0 0.01 0.01 0.01 63 1007.2
20260503225406 55 242 7.0 15.0 0.01 0.01 0.01 63 1007.3
20260503225306 55 239 9.0 15.0 0.01 0.01 0.01 66 1007.4
20260503225205 55 239 8.0 15.0 0.01 0.01 0.01 64 1007.5
20260503225106 55 243 7.0 15.0 0.01 0.01 0.01 58 1007.5
20260503225005 55 231 7.0 15.0 0.01 0.01 0.01 58 1007.4
20260503224706 56 113 8.0 17.0 0.01 0.01 0.01 55 1007.7
20260503224605 55 103 6.0 17.0 0.01 0.01 0.01 51 1007.8
20260503224406 55 134 4.0 17.0 0.01 0.01 0.01 61 1008.5
20260503224306 55 130 2.0 17.0 0.01 0.01 0.01 61 1008.4
20260503224205 56 152 4.0 17.0 0.00 0.00 0.00 60 1008.3
20260503224106 56 170 4.0 17.0 0.00 0.00 0.00 60 1008.4
20260503224005 56 200 9.0 17.0 0.00 0.00 0.00 58 1008.5
20260503223705 57 229 7.0 15.0 0.00 0.00 0.00 56 1008.2
20260503223606 57 214 5.0 12.0 0.00 0.00 0.00 50 1008.5
20260503223505 57 281 5.0 12.0 0.00 0.00 0.00 50 1008.3
20260503223405 57 345 3.0 11.0 0.00 0.00 0.00 49 1008.4
20260503223306 57 35 4.0 11.0 0.00 0.00 0.00 50 1008.5
20260503223205 57 86 6.0 11.0 0.00 0.00 0.00 51 1008.5
20260503223106 57 89 2.0 12.0 0.00 0.00 0.00 51 1008.5
20260503223006 57 79 2.0 12.0 0.00 0.00 0.00 52 1008.4
20260503222905 57 96 4.0 15.0 0.00 0.00 0.00 52 1008.4
20260503222806 57 103 4.0 15.0 0.00 0.00 0.00 51 1008.4
20260503222705 57 93 4.0 15.0 0.00 0.00 0.00 51 1008.5
20260503222606 57 95 4.0 15.0 0.00 0.00 0.00 50 1008.4
20260503222505 58 92 5.0 15.0 0.00 0.00 0.00 50 1008.6
20260503222406 58 104 4.0 15.0 0.00 0.00 0.00 50 1008.5
20260503222306 58 102 8.0 15.0 0.00 0.00 0.00 50 1008.5
20260503222205 58 76 6.0 22.0 0.00 0.00 0.00 50 1008.5
20260503222105 58 87 7.0 22.0 0.00 0.00 0.00 49 1008.7
20260503222006 58 284 7.0 22.0 0.00 0.00 0.00 50 1008.6
20260503221805 58 282 6.0 22.0 0.00 0.00 0.00 50 1008.5
20260503221706 58 280 6.0 22.0 0.00 0.00 0.00 50 1008.6
20260503221606 59 277 5.0 22.0 0.00 0.00 0.00 50 1008.6
20260503221505 59 259 9.0 22.0 0.00 0.00 0.00 50 1008.7
20260503221406 59 255 5.0 22.0 0.00 0.00 0.00 49 1008.5
20260503221206 60 222 6.0 16.0 0.00 0.00 0.00 48 1008.4
20260503221105 60 199 7.0 16.0 0.00 0.00 0.00 47 1008.4
20260503221006 60 154 5.0 15.0 0.00 0.00 0.00 47 1008.3
20260503220805 61 127 5.0 15.0 0.00 0.00 0.00 45 1008.2
20260503220605 62 133 6.0 15.0 0.00 0.00 0.00 44 1008.2
20260503220406 62 153 5.0 16.0 0.00 0.00 0.00 43 1008.1
20260503220305 62 163 4.0 16.0 0.00 0.00 0.00 43 1008.1
20260503220206 62 172 6.0 16.0 0.00 0.00 0.00 44 1008.0
20260503220106 62 184 8.0 16.0 0.00 0.00 0.00 44 1008.0
20260503215906 62 211 8.0 17.0 0.00 0.00 0.00 43 1007.9
20260503215805 62 218 5.0 17.0 0.00 0.00 0.00 44 1008.0
20260503215706 61 230 4.0 20.0 0.00 0.00 0.00 44 1008.0
20260503215505 61 244 10.0 20.0 0.00 0.00 0.00 45 1007.8
20260503215406 61 249 10.0 20.0 0.00 0.00 0.00 45 1007.8
20260503215305 60 257 8.0 20.0 0.00 0.00 0.00 46 1007.8
20260503215205 60 260 9.0 20.0 0.00 0.00 0.00 46 1007.7
20260503215106 60 259 12.0 20.0 0.00 0.00 0.00 47 1007.7
20260503215005 60 260 12.0 20.0 0.00 0.00 0.00 47 1007.6
20260503214806 60 251 11.0 21.0 0.00 0.00 0.00 47 1007.4
20260503214705 59 245 10.0 23.0 0.00 0.00 0.00 48 1007.4
20260503214606 59 238 9.0 23.0 0.00 0.00 0.00 48 1007.3
20260503214506 59 235 10.0 23.0 0.00 0.00 0.00 49 1007.2
20260503214406 59 231 12.0 23.0 0.00 0.00 0.00 49 1007.1
20260503214305 58 232 11.0 23.0 0.00 0.00 0.00 49 1007.2
20260503214206 58 235 11.0 23.0 0.00 0.00 0.00 50 1007.2
20260503214005 58 234 10.0 23.0 0.00 0.00 0.00 52 1007.2
20260503213706 57 240 16.0 23.0 0.00 0.00 0.00 51 1006.9
20260503213605 56 244 11.0 23.0 0.00 0.00 0.00 54 1007.1
20260503213505 56 249 11.0 23.0 0.00 0.00 0.00 54 1007.1
20260503213408 56 254 10.0 23.0 0.00 0.00 0.00 55 1007.0
20260503213305 56 250 15.0 23.0 0.00 0.00 0.00 56 1007.0
20260503213205 55 242 12.0 24.0 0.00 0.00 0.00 57 1007.1
20260503213106 55 247 14.0 24.0 0.00 0.00 0.00 57 1006.9
20260503213006 55 254 15.0 24.0 0.00 0.00 0.00 58 1006.9
20260503212905 55 255 15.0 25.0 0.00 0.00 0.00 57 1006.9
20260503212705 55 246 15.0 30.0 0.00 0.00 0.00 57 1006.9
20260503212606 55 243 12.0 30.0 0.00 0.00 0.00 57 1006.9
20260503212505 55 242 12.0 30.0 0.00 0.00 0.00 57 1006.9
20260503212405 55 242 15.0 30.0 0.00 0.00 0.00 58 1007.2
20260503212306 55 245 19.0 30.0 0.00 0.00 0.00 58 1007.2
20260503212205 54 244 15.0 30.0 0.00 0.00 0.00 60 1007.4
20260503212006 54 233 17.0 30.0 0.00 0.00 0.00 59 1007.5
20260503211905 54 239 21.0 30.0 0.00 0.00 0.00 58 1007.4
20260503211806 54 250 19.0 30.0 0.00 0.00 0.00 58 1007.2
20260503211706 54 256 20.0 30.0 0.00 0.00 0.00 59 1007.4
20260503211605 55 251 9.0 24.0 0.00 0.00 0.00 60 1007.6
20260503211506 55 220 12.0 24.0 0.00 0.00 0.00 60 1007.7
20260503211405 55 198 15.0 24.0 0.00 0.00 0.00 59 1007.6
20260503211306 55 162 10.0 24.0 0.00 0.00 0.00 59 1007.7
20260503211205 55 151 14.0 24.0 0.00 0.00 0.00 59 1007.5
20260503211105 55 130 6.0 21.0 0.00 0.00 0.00 60 1007.4
20260503211006 55 147 6.0 21.0 0.00 0.00 0.00 60 1007.4
20260503210806 56 154 6.0 21.0 0.00 0.00 0.00 57 1007.5
20260503210705 56 152 6.0 21.0 0.00 0.00 0.00 56 1007.4
20260503210606 56 143 8.0 21.0 0.00 0.00 0.00 56 1007.5
20260503210505 56 144 8.0 21.0 0.00 0.00 0.00 56 1007.5
20260503210406 56 150 7.0 21.0 0.00 0.00 0.00 55 1007.5
20260503210305 56 157 10.0 21.0 0.00 0.00 0.00 55 1007.4
20260503210205 56 164 11.0 23.0 0.00 0.00 0.00 55 1007.4
20260503210006 57 148 11.0 25.0 0.00 0.00 0.00 53 1007.4
20260503205906 57 136 14.0 25.0 0.00 0.00 0.00 52 1007.3
20260503205805 57 130 13.0 25.0 0.00 0.00 0.00 50 1007.3
20260503205706 57 129 14.0 25.0 0.00 0.00 0.00 49 1007.3
20260503205506 57 133 8.0 25.0 0.00 0.00 0.00 48 1007.3
20260503205405 58 127 11.0 25.0 0.00 0.00 0.00 48 1007.4
20260503205305 58 134 11.0 25.0 0.00 0.00 0.00 48 1007.2
20260503205206 58 128 15.0 25.0 0.00 0.00 0.00 47 1007.2
20260503205105 58 120 15.0 25.0 0.00 0.00 0.00 46 1007.3
20260503205006 58 114 15.0 25.0 0.00 0.00 0.00 46 1007.2
20260503204905 59 112 11.0 23.0 0.00 0.00 0.00 46 1007.3
20260503204806 59 115 12.0 23.0 0.00 0.00 0.00 45 1007.1
20260503204506 60 107 11.0 23.0 0.00 0.00 0.00 43 1007.0
20260503204405 60 104 12.0 23.0 0.00 0.00 0.00 43 1007.0
20260503204306 60 102 11.0 23.0 0.00 0.00 0.00 42 1007.0
20260503204205 60 107 13.0 23.0 0.00 0.00 0.00 42 1007.0
20260503204006 61 142 15.0 21.0 0.00 0.00 0.00 42 1006.8
20260503203806 62 146 15.0 21.0 0.00 0.00 0.00 40 1006.6
20260503203705 62 155 12.0 27.0 0.00 0.00 0.00 39 1006.5
20260503203405 63 181 13.0 27.0 0.00 0.00 0.00 37 1006.3
20260503203306 63 148 11.0 27.0 0.00 0.00 0.00 36 1006.4
20260503203106 64 109 11.0 27.0 0.00 0.00 0.00 34 1006.3
20260503202905 65 119 13.0 27.0 0.00 0.00 0.00 32 1006.3
20260503202806 67 108 17.0 27.0 0.00 0.00 0.00 29 1006.8
20260503202705 68 98 18.0 27.0 0.00 0.00 0.00 27 1006.1
20260503202605 69 91 17.0 27.0 0.00 0.00 0.00 26 1006.0
20260503202506 69 94 14.0 27.0 0.00 0.00 0.00 23 1005.9
20260503202405 71 96 11.0 27.0 0.00 0.00 0.00 21 1006.0
20260503202306 71 93 17.0 27.0 0.00 0.00 0.00 17 1006.3
20260503202205 72 136 3.0 9.0 0.00 0.00 0.00 12 1006.1
20260503202105 72 122 3.0 9.0 0.00 0.00 0.00 12 1005.9
20260503202005 72 95 4.0 9.0 0.00 0.00 0.00 12 1005.8
20260503201905 72 95 4.0 9.0 0.00 0.00 0.00 12 1005.7
20260503201806 72 85 4.0 9.0 0.00 0.00 0.00 12 1005.8
20260503201705 72 84 3.0 9.0 0.00 0.00 0.00 12 1005.8
20260503201606 72 86 2.0 9.0 0.00 0.00 0.00 12 1005.7
20260503201405 72 94 2.0 9.0 0.00 0.00 0.00 12 1005.7
20260503201306 72 109 3.0 9.0 0.00 0.00 0.00 12 1005.7
20260503201205 72 125 3.0 10.0 0.00 0.00 0.00 12 1005.7
20260503201106 72 128 2.0 10.0 0.00 0.00 0.00 12 1005.6
20260503201005 73 139 3.0 10.0 0.00 0.00 0.00 11 1005.6
20260503200905 73 141 4.0 10.0 0.00 0.00 0.00 11 1005.6
20260503200805 73 151 6.0 10.0 0.00 0.00 0.00 10 1005.9
20260503200705 73 161 2.0 10.0 0.00 0.00 0.00 12 1005.6
20260503200605 73 161 2.0 10.0 0.00 0.00 0.00 12 1005.6
20260503200506 73 156 2.0 10.0 0.00 0.00 0.00 12 1005.6
20260503200405 73 153 2.0 10.0 0.00 0.00 0.00 12 1005.6
20260503200306 73 139 2.0 10.0 0.00 0.00 0.00 12 1005.6
20260503200205 73 114 4.0 10.0 0.00 0.00 0.00 12 1005.6
20260503200106 73 90 2.0 10.0 0.00 0.00 0.00 14 1005.8
20260503195905 73 80 1.0 11.0 0.00 0.00 0.00 13 1005.6
20260503195806 73 80 1.0 11.0 0.00 0.00 0.00 13 1005.6
20260503195705 73 79 1.0 11.0 0.00 0.00 0.00 13 1005.6
20260503195605 73 80 2.0 11.0 0.00 0.00 0.00 13 1005.7
20260503195506 73 71 1.0 11.0 0.00 0.00 0.00 13 1005.7
20260503195405 73 0 0.0 11.0 0.00 0.00 0.00 12 1005.7
20260503195305 73 69 5.0 11.0 0.00 0.00 0.00 12 1005.8
20260503195206 74 78 6.0 11.0 0.00 0.00 0.00 12 1005.8
20260503195105 74 90 8.0 11.0 0.00 0.00 0.00 12 1005.9
20260503195006 74 100 8.0 11.0 0.00 0.00 0.00 12 1005.7
20260503194905 74 104 8.0 11.0 0.00 0.00 0.00 12 1005.9
20260503194805 74 303 5.0 8.0 0.00 0.00 0.00 13 1005.9
20260503194705 73 292 2.0 7.0 0.00 0.00 0.00 16 1005.9
20260503194605 73 321 4.0 8.0 0.00 0.00 0.00 16 1005.9
20260503194506 73 279 4.0 8.0 0.00 0.00 0.00 15 1005.9
20260503194305 73 114 3.0 11.0 0.00 0.00 0.00 16 1005.9
20260503194106 72 92 2.0 12.0 0.00 0.00 0.00 16 1005.9
20260503193906 72 96 2.0 12.0 0.00 0.00 0.00 16 1005.8
20260503193805 72 94 2.0 12.0 0.00 0.00 0.00 16 1005.9
20260503193706 72 96 4.0 12.0 0.00 0.00 0.00 16 1005.9
20260503193605 72 97 4.0 12.0 0.00 0.00 0.00 15 1005.8
20260503193506 72 90 4.0 12.0 0.00 0.00 0.00 14 1006.0
20260503193405 72 91 4.0 12.0 0.00 0.00 0.00 15 1005.9
20260503193005 72 75 2.0 12.0 0.00 0.00 0.00 14 1006.3
20260503192905 72 71 3.0 12.0 0.00 0.00 0.00 14 1006.2
20260503192806 72 77 8.0 12.0 0.00 0.00 0.00 14 1006.3
20260503192706 72 76 8.0 12.0 0.00 0.00 0.00 16 1006.2
20260503192605 72 79 5.0 11.0 0.00 0.00 0.00 16 1006.4
20260503192405 72 91 4.0 9.0 0.00 0.00 0.00 16 1006.4
20260503192105 72 153 4.0 9.0 0.00 0.00 0.00 18 1006.4
20260503192006 71 135 4.0 8.0 0.00 0.00 0.00 18 1006.4
20260503191905 71 136 5.0 8.0 0.00 0.00 0.00 18 1006.4
20260503191806 71 194 2.0 8.0 0.00 0.00 0.00 18 1006.5
20260503191705 71 219 1.0 8.0 0.00 0.00 0.00 18 1006.4
20260503191606 71 270 2.0 8.0 0.00 0.00 0.00 18 1006.5
20260503191505 71 286 2.0 8.0 0.00 0.00 0.00 19 1006.5
20260503191405 71 0 0.0 8.0 0.00 0.00 0.00 19 1006.6
20260503191306 71 0 0.0 8.0 0.00 0.00 0.00 19 1006.4
20260503191205 70 310 3.0 8.0 0.00 0.00 0.00 19 1006.5
20260503191106 70 306 2.0 8.0 0.00 0.00 0.00 19 1006.5
20260503191005 70 296 4.0 8.0 0.00 0.00 0.00 19 1006.5
20260503190805 70 278 2.0 4.0 0.00 0.00 0.00 21 1006.5
20260503190706 70 284 2.0 4.0 0.00 0.00 0.00 21 1006.6
20260503190605 70 289 2.0 4.0 0.00 0.00 0.00 21 1006.6
20260503190505 70 310 2.0 9.0 0.00 0.00 0.00 21 1006.6
20260503190406 70 341 2.0 10.0 0.00 0.00 0.00 21 1006.6
20260503190305 70 348 2.0 10.0 0.00 0.00 0.00 21 1006.7
20260503190206 70 349 1.0 10.0 0.00 0.00 0.00 21 1006.7
20260503190005 70 0 0.0 10.0 0.00 0.00 0.00 21 1006.6
20260503185905 70 347 2.0 10.0 0.00 0.00 0.00 21 1006.7
20260503185805 70 352 2.0 10.0 0.00 0.00 0.00 21 1006.8
20260503185705 70 354 2.0 10.0 0.00 0.00 0.00 21 1006.7
20260503185605 70 358 5.0 10.0 0.00 0.00 0.00 21 1006.8
20260503185505 70 358 4.0 10.0 0.00 0.00 0.00 22 1006.7
20260503185406 70 344 4.0 7.0 0.00 0.00 0.00 22 1006.8
20260503185305 70 336 3.0 7.0 0.00 0.00 0.00 22 1006.8
20260503185206 70 336 3.0 4.0 0.00 0.00 0.00 23 1006.8
20260503185105 70 326 2.0 5.0 0.00 0.00 0.00 23 1006.9
20260503185006 69 322 2.0 5.0 0.00 0.00 0.00 23 1006.9
20260503184905 69 333 2.0 7.0 0.00 0.00 0.00 23 1006.9
20260503184806 69 337 2.0 7.0 0.00 0.00 0.00 23 1006.8
20260503184705 69 337 2.0 7.0 0.00 0.00 0.00 23 1006.9
20260503184605 69 332 2.0 7.0 0.00 0.00 0.00 23 1006.8
20260503184506 69 336 2.0 8.0 0.00 0.00 0.00 23 1006.9
20260503184405 69 337 1.0 8.0 0.00 0.00 0.00 23 1006.9
20260503184305 69 343 2.0 8.0 0.00 0.00 0.00 23 1006.9
20260503184206 69 347 2.0 8.0 0.00 0.00 0.00 23 1006.9
20260503184105 69 353 3.0 8.0 0.00 0.00 0.00 23 1007.0
20260503183806 69 343 3.0 8.0 0.00 0.00 0.00 23 1007.1
20260503183705 69 339 2.0 8.0 0.00 0.00 0.00 22 1007.1
20260503183606 69 342 3.0 8.0 0.00 0.00 0.00 23 1007.1
20260503183505 69 337 4.0 8.0 0.00 0.00 0.00 23 1007.2
20260503183405 69 332 4.0 8.0 0.00 0.00 0.00 23 1007.2
20260503183306 69 330 6.0 8.0 0.00 0.00 0.00 23 1007.1
20260503183206 69 333 3.0 6.0 0.00 0.00 0.00 24 1007.2
20260503183105 69 327 3.0 6.0 0.00 0.00 0.00 24 1007.2
20260503183006 69 326 3.0 6.0 0.00 0.00 0.00 24 1007.2
20260503182906 69 345 4.0 6.0 0.00 0.00 0.00 23 1007.2
20260503182806 69 0 0.0 8.0 0.00 0.00 0.00 24 1007.2
20260503182705 69 16 1.0 8.0 0.00 0.00 0.00 24 1007.2
20260503182506 69 11 3.0 8.0 0.00 0.00 0.00 23 1007.4
20260503182405 69 13 1.0 8.0 0.00 0.00 0.00 24 1007.4
20260503182306 69 10 2.0 8.0 0.00 0.00 0.00 24 1007.4
20260503182206 69 3 3.0 8.0 0.00 0.00 0.00 23 1007.4
20260503182105 69 352 1.0 8.0 0.00 0.00 0.00 24 1007.4
20260503182006 69 337 2.0 8.0 0.00 0.00 0.00 24 1007.4
20260503181906 69 337 3.0 8.0 0.00 0.00 0.00 23 1007.3
20260503181805 69 334 6.0 8.0 0.00 0.00 0.00 23 1007.4
20260503181706 69 328 5.0 8.0 0.00 0.00 0.00 23 1007.3
20260503181605 69 330 3.0 8.0 0.00 0.00 0.00 23 1007.4
20260503181507 69 336 3.0 8.0 0.00 0.00 0.00 23 1007.4
20260503181405 69 342 3.0 8.0 0.00 0.00 0.00 23 1007.5
20260503181306 69 340 3.0 8.0 0.00 0.00 0.00 24 1007.4
20260503181205 69 331 5.0 8.0 0.00 0.00 0.00 24 1007.4
20260503181005 69 339 3.0 8.0 0.00 0.00 0.00 25 1007.5
20260503180905 68 337 4.0 8.0 0.00 0.00 0.00 26 1007.5
20260503180806 68 327 5.0 8.0 0.00 0.00 0.00 26 1007.5
20260503180705 68 327 2.0 8.0 0.00 0.00 0.00 26 1007.5
20260503180606 68 332 3.0 8.0 0.00 0.00 0.00 26 1007.5
20260503180505 68 334 3.0 8.0 0.00 0.00 0.00 27 1007.4
20260503180405 68 340 2.0 8.0 0.00 0.00 0.00 27 1007.5
20260503180305 68 347 4.0 8.0 0.00 0.00 0.00 26 1007.5
20260503180206 68 357 4.0 8.0 0.00 0.00 0.00 26 1007.5
20260503180106 68 357 2.0 8.0 0.00 0.00 0.00 26 1007.6
20260503180005 68 11 2.0 8.0 0.00 0.00 0.00 26 1007.5
20260503175905 68 11 4.0 8.0 0.00 0.00 0.00 26 1007.6
20260503175805 68 17 4.0 8.0 0.00 0.00 0.00 26 1007.7
20260503175706 68 19 4.0 8.0 0.00 0.00 0.00 27 1007.6
20260503175605 68 18 4.0 8.0 0.00 0.00 0.00 27 1007.6
20260503175505 68 8 4.0 8.0 0.00 0.00 0.00 28 1007.6
20260503175405 68 351 1.0 8.0 0.00 0.00 0.00 28 1007.7
20260503175305 68 348 2.0 8.0 0.00 0.00 0.00 28 1007.7
20260503175206 67 348 2.0 7.0 0.00 0.00 0.00 29 1007.7
20260503175105 67 353 3.0 7.0 0.00 0.00 0.00 28 1007.8
20260503175005 67 342 2.0 7.0 0.00 0.00 0.00 29 1007.6
20260503174805 67 333 1.0 7.0 0.00 0.00 0.00 30 1007.7
20260503174706 67 334 2.0 7.0 0.00 0.00 0.00 30 1007.7
20260503174505 67 338 2.0 7.0 0.00 0.00 0.00 30 1007.9
20260503174406 67 335 2.0 7.0 0.00 0.00 0.00 28 1007.9
20260503174205 67 312 4.0 7.0 0.00 0.00 0.00 30 1007.9
20260503174106 67 309 2.0 6.0 0.00 0.00 0.00 33 1007.9
20260503174005 66 298 2.0 6.0 0.00 0.00 0.00 34 1007.9
20260503173906 66 296 1.0 6.0 0.00 0.00 0.00 34 1007.8
20260503173805 66 295 1.0 6.0 0.00 0.00 0.00 34 1007.9
20260503173605 66 284 3.0 6.0 0.00 0.00 0.00 34 1007.9
20260503173506 66 284 4.0 6.0 0.00 0.00 0.00 35 1007.9
20260503173405 66 279 4.0 6.0 0.00 0.00 0.00 35 1007.9
20260503173306 66 281 2.0 6.0 0.00 0.00 0.00 35 1007.9
20260503173205 66 293 1.0 6.0 0.00 0.00 0.00 34 1007.9
20260503173106 66 291 4.0 6.0 0.00 0.00 0.00 34 1007.8
20260503173005 66 290 4.0 6.0 0.00 0.00 0.00 34 1007.9
20260503172906 66 292 4.0 5.0 0.00 0.00 0.00 34 1007.8
20260503172706 66 309 2.0 5.0 0.00 0.00 0.00 36 1007.9
20260503172605 66 309 2.0 5.0 0.00 0.00 0.00 37 1008.0
20260503172507 65 306 1.0 5.0 0.00 0.00 0.00 37 1008.0
20260503172405 65 306 1.0 5.0 0.00 0.00 0.00 37 1008.0
20260503172305 65 304 1.0 5.0 0.00 0.00 0.00 36 1008.0
20260503172205 65 298 2.0 5.0 0.00 0.00 0.00 36 1008.0
20260503172105 65 297 1.0 5.0 0.00 0.00 0.00 36 1007.9
20260503172006 65 300 3.0 6.0 0.00 0.00 0.00 36 1008.1
20260503171905 65 303 2.0 6.0 0.00 0.00 0.00 37 1007.9
20260503171805 65 306 2.0 6.0 0.00 0.00 0.00 37 1007.8
20260503171706 65 309 2.0 6.0 0.00 0.00 0.00 37 1007.9
20260503171605 65 314 3.0 6.0 0.00 0.00 0.00 36 1008.0
20260503171406 65 312 3.0 6.0 0.00 0.00 0.00 36 1007.9
20260503171206 65 313 3.0 6.0 0.00 0.00 0.00 36 1008.0
20260503171105 65 324 3.0 6.0 0.00 0.00 0.00 35 1007.9
20260503170905 65 26 1.0 4.0 0.00 0.00 0.00 38 1007.9
20260503170805 65 10 1.0 3.0 0.00 0.00 0.00 39 1007.9
20260503170706 64 27 1.0 4.0 0.00 0.00 0.00 40 1007.9
20260503170506 64 0 0.0 4.0 0.00 0.00 0.00 41 1008.1
20260503170405 64 16 1.0 4.0 0.00 0.00 0.00 41 1008.1
20260503170306 64 32 1.0 4.0 0.00 0.00 0.00 41 1008.1
20260503170105 64 9 2.0 4.0 0.00 0.00 0.00 42 1008.1
20260503160205 57 0 0.0 2.0 0.00 0.00 0.00 57 1008.7
20260503160105 57 0 0.0 2.0 0.00 0.00 0.00 58 1008.8
20260503151005 52 0 0.0 2.0 0.00 0.00 0.00 69 1009.1
20260503150905 52 0 0.0 2.0 0.00 0.00 0.00 69 1009.0
20260503150806 51 115 1.0 2.0 0.00 0.00 0.00 70 1009.0
20260503150605 51 0 0.0 2.0 0.00 0.00 0.00 72 1009.0
20260503150405 51 0 0.0 2.0 0.00 0.00 0.00 72 1008.9
20260503150305 51 0 0.0 2.0 0.00 0.00 0.00 72 1009.0
20260503150205 51 0 0.0 2.0 0.00 0.00 0.00 72 1009.0
20260503140206 44 106 1.0 4.0 0.00 0.00 0.00 82 1009.1
20260503140105 44 101 1.0 4.0 0.00 0.00 0.00 82 1009.1
20260503131405 40 0 0.0 1.0 0.00 0.00 0.00 80 1008.9
20260503131304 40 0 0.0 1.0 0.00 0.00 0.00 79 1008.9
20260503131205 40 0 0.0 1.0 0.00 0.00 0.00 79 1008.9
20260503131105 40 0 0.0 1.0 0.00 0.00 0.00 79 1008.9
20260503131004 40 0 0.0 1.0 0.00 0.00 0.00 79 1008.9
20260503130705 40 0 0.0 1.0 0.00 0.00 0.00 78 1008.9
20260503130605 40 0 0.0 1.0 0.00 0.00 0.00 78 1008.9
20260503130505 40 0 0.0 1.0 0.00 0.00 0.00 78 1008.9
20260503130405 40 0 0.0 1.0 0.00 0.00 0.00 78 1008.9
20260503130305 40 0 0.0 1.0 0.00 0.00 0.00 78 1009.0
20260503130205 40 0 0.0 1.0 0.00 0.00 0.00 78 1008.9
20260503130105 40 0 0.0 1.0 0.00 0.00 0.00 78 1008.9
20260503120205 43 0 0.0 2.0 0.00 0.00 0.00 78 1008.9
20260503120105 43 0 0.0 2.0 0.00 0.00 0.00 78 1009.0
20260503110806 46 0 0.0 1.0 0.00 0.00 0.00 73 1009.2
20260503110705 47 0 0.0 1.0 0.00 0.00 0.00 71 1009.2
20260503110605 47 0 0.0 1.0 0.00 0.00 0.00 71 1009.2
20260503110505 47 0 0.0 1.0 0.00 0.00 0.00 71 1009.2
20260503110405 47 0 0.0 1.0 0.00 0.00 0.00 71 1009.2
20260503110205 47 0 0.0 1.0 0.00 0.00 0.00 71 1009.2
20260503100205 49 90 4.0 5.0 0.00 0.00 0.00 74 1009.2
20260503100105 49 90 4.0 5.0 0.00 0.00 0.00 74 1009.1
20260503090505 49 84 1.0 3.0 0.00 0.00 0.00 71 1009.4
20260503090405 49 86 1.0 3.0 0.00 0.00 0.00 71 1009.4
20260503090205 49 86 1.0 3.0 0.00 0.00 0.00 71 1009.4
20260503090105 49 89 1.0 3.0 0.00 0.00 0.00 71 1009.5
20260503081504 50 0 0.0 2.0 0.00 0.00 0.00 67 1009.9
20260503081405 50 0 0.0 2.0 0.00 0.00 0.00 67 1009.8
20260503081305 50 0 0.0 2.0 0.00 0.00 0.00 67 1009.8
20260503081205 50 135 1.0 2.0 0.00 0.00 0.00 68 1009.7
20260503081105 50 0 0.0 2.0 0.00 0.00 0.00 68 1009.9
20260503081004 50 0 0.0 2.0 0.00 0.00 0.00 67 1009.7
20260503080905 50 135 1.0 2.0 0.00 0.00 0.00 67 1009.9
20260503080804 50 0 0.0 1.0 0.00 0.00 0.00 67 1009.8
20260503080605 50 0 0.0 0.0 0.00 0.00 0.00 65 1009.9
20260503080504 50 0 0.0 0.0 0.00 0.00 0.00 65 1009.7
20260503080405 50 0 0.0 1.0 0.00 0.00 0.00 65 1009.9
20260503080305 50 0 0.0 2.0 0.00 0.00 0.00 65 1009.9
20260503080205 50 0 0.0 2.0 0.00 0.00 0.00 65 1009.9
20260503072904 53 0 0.0 1.0 0.00 0.00 0.00 59 1010.0
20260503072805 53 0 0.0 1.0 0.00 0.00 0.00 60 1010.0
20260503072705 53 0 0.0 1.0 0.00 0.00 0.00 60 1010.0
20260503072605 53 0 0.0 2.0 0.00 0.00 0.00 60 1010.0
20260503072505 53 0 0.0 2.0 0.00 0.00 0.00 60 1010.0
20260503072404 53 0 0.0 2.0 0.00 0.00 0.00 60 1010.1
20260503072306 53 0 0.0 2.0 0.00 0.00 0.00 60 1010.1
20260503072205 53 0 0.0 2.0 0.00 0.00 0.00 60 1010.0
20260503072104 53 0 0.0 2.0 0.00 0.00 0.00 60 1010.0
20260503071905 52 0 0.0 2.0 0.00 0.00 0.00 61 1010.2
20260503071805 52 0 0.0 2.0 0.00 0.00 0.00 61 1010.1
20260503071505 52 234 1.0 2.0 0.00 0.00 0.00 62 1010.1
20260503071405 52 0 0.0 2.0 0.00 0.00 0.00 62 1010.0
20260503071305 52 0 0.0 1.0 0.00 0.00 0.00 63 1010.1
20260503071205 52 0 0.0 1.0 0.00 0.00 0.00 63 1010.1
20260503071105 52 0 0.0 1.0 0.00 0.00 0.00 63 1010.1
20260503070905 52 0 0.0 0.0 0.00 0.00 0.00 63 1010.1
20260503070805 52 0 0.0 0.0 0.00 0.00 0.00 63 1010.0
20260503070705 52 0 0.0 0.0 0.00 0.00 0.00 63 1010.1
20260503070605 52 0 0.0 0.0 0.00 0.00 0.00 63 1010.1
20260503070505 52 0 0.0 0.0 0.00 0.00 0.00 63 1010.1
20260503070405 52 0 0.0 1.0 0.00 0.00 0.00 63 1010.1
20260503070305 52 0 0.0 2.0 0.00 0.00 0.00 63 1010.1
20260503070205 52 0 0.0 2.0 0.00 0.00 0.00 63 1010.1
20260503070104 52 0 0.0 2.0 0.00 0.00 0.00 63 1010.0